Location: Krasnoyarskiy Pitomnik
(51.1333°N, 71.6167°E)
Time: 07:43:56
(UTC+00:00)

Cosmos 2082 Rocket - Pass Details

Date: 22 October 2021
Orbit: 834 x 853 km, 71.0° (Epoch: 05 December)

Event Time Altitude Azimuth Distance (km) Brightness Sun altitude
Exits shadow 22:28:20 53° 27° (NNE) 1,040 2.8 -31.8°
Drops below altitude 10° 22:32:39 10° 30° (NNE) 2,491 5.2 -31.2°
Sets 22:35:07 0° 31° (NNE) 3,428 6.1 -30.8°
